EHI
36 37 36 36 38 39 36 32 29 27 24 20 19 17 15 12 11 11 10 9 8 7 6 6 5 4 3 3 3 3 3 3 1 0 0 0 0 0 0 0 0 0 0
38 37 36 36 37 38 36 33 30 28 24 19 17 16 14 12 11 10 9 8 7 6 6 5 4 3 3 3 3 3 3 3 2 1 0 0 0 0 0 0 0 0 0
40 35 31 31 32 32 30 29 28 26 22 18 15 14 12 12 11 11 9 8 7 5 4 4 3 3 3 3 3 3 3 3 2 1 0 0 0 0 0 0 0 0 0
39 33 27 25 25 25 24 24 24 23 21 16 12 11 10 11 11 11 9 8 6 5 3 3 2 2 3 3 3 3 3 3 3 1 0 0 0 0 0 0 0 0 0
35 31 24 21 22 22 22 22 21 21 18 13 10 10 10 9 10 10 9 7 6 5 4 3 2 2 2 2 2 2 3 3 2 1 0 0 0 0 0 0 0 0 0
29 27 22 19 20 21 20 19 18 16 13 9 8 9 9 8 7 7 7 6 6 5 4 2 1 1 1 0 1 1 1 2 1 1 0 0 0 0 0 0 0 0 0
25 24 21 19 18 18 17 16 15 13 9 6 6 6 7 6 4 3 4 5 5 4 2 1 0 0 0 0 0 0 0 0 0 0 0 0 0 0 0 0 0 0 0
23 22 20 19 17 16 15 14 12 10 6 3 3 3 4 3 1 1 2 4 5 3 1 0 1 1 0 0 0 0 0 0 0 0 0 0 0 0 0 0 0 0 1
25 22 19 18 17 16 13 11 9 7 3 1 1 2 3 2 1 0 1 3 5 5 2 1 1 1 0 0 0 0 0 0 0 0 0 0 0 0 0 0 0 1 2
27 24 20 19 17 15 12 9 7 5 1 0 0 2 3 3 1 0 0 2 4 5 4 3 2 1 0 0 0 0 0 0 0 0 0 0 0 0 0 0 0 1 2
26 23 19 18 15 13 11 8 5 3 1 0 0 1 2 2 2 0 0 1 2 5 6 5 3 1 0 0 0 0 0 0 0 0 0 0 0 0 1 1 1 1 2
21 19 17 15 14 11 9 8 5 2 0 0 0 0 0 1 1 1 0 0 2 4 6 5 3 2 0 0 0 0 0 0 0 0 0 0 0 0 1 2 2 2 2
15 16 15 14 12 9 8 7 5 3 1 1 0 0 0 1 2 2 1 0 1 3 3 2 1 1 0 0 0 0 0 0 0 0 0 0 0 0 1 3 3 3 3
10 12 13 13 11 9 7 6 6 4 3 2 1 1 1 1 3 4 3 1 1 2 2 1 0 0 0 0 0 0 0 0 0 0 0 0 0 0 1 3 3 3 3
7 8 10 10 10 9 7 6 5 4 3 2 2 2 2 2 4 5 4 3 2 2 2 1 0 0 0 0 0 0 0 0 0 0 0 0 0 1 2 3 3 3 3
6 6 7 7 7 7 7 6 4 2 1 1 1 1 1 1 2 3 3 2 2 2 1 1 0 0 0 0 0 0 0 0 0 0 0 0 0 1 2 2 2 2 2
4 4 5 5 5 7 7 6 2 0 0 0 0 0 0 0 1 1 1 1 1 1 0 0 0 0 0 0 0 0 0 0 0 0 0 0 0 1 1 1 1 1 1
2 4 5 5 5 7 8 6 3 1 1 0 0 0 0 0 0 0 0 0 0 0 0 0 0 0 0 0 0 0 0 0 0 0 0 0 0 0 0 0 0 0 0
1 4 6 6 6 7 7 7 5 3 2 1 1 0 0 0 0 0 0 0 0 0 0 0 0 0 0 0 0 0 0 0 0 0 0 0 0 0 0 0 0 0 0
1 2 4 5 5 5 5 5 4 3 2 2 1 0 0 0 0 0 0 0 0 0 0 0 0 0 0 0 0 0 0 0 0 0 0 0 0 0 0 0 0 0 0
0 0 1 1 2 3 2 2 1 1 1 1 1 0 0 0 0 0 0 0 0 0 0 0 0 0 0 0 0 0 0 0 0 0 0 0 0 0 0 0 0 0 0
0 0 0 0 1 2 1 1 0 0 0 0 0 0 0 0 0 0 0 0 0 0 0 0 0 0 0 0 0 0 0 0 0 0 0 0 0 0 0 0 0 0 0
0 0 0 0 2 3 3 2 1 0 0 0 0 0 0 0 0 0 0 0 0 0 0 0 0 0 0 0 0 0 0 0 0 0 0 0 0 0 0 0 0 0 0
0 0 0 0 1 2 3 3 2 1 0 0 0 0 0 0 0 0 0 0 0 0 0 0 0 0 0 0 0 0 0 0 0 0 0 0 0 0 0 0 0 0 0
0 0 0 0 0 1 2 3 2 1 0 0 0 0 0 0 0 0 0 0 0 0 0 0 0 0 0 0 0 0 0 0 0 0 0 0 0 0 0 0 0 0 0
0 0 0 0 0 0 1 2 2 2 1 0 0 0 0 0 0 0 0 0 0 0 0 0 0 0 0 0 0 0 0 0 0 0 0 0 0 0 0 0 0 0 0
Wind_Speed
6 5 5 4 3 3 2 2 2 2 2 3 2 3 2 2 2 2 2 2 2 2 2 2 1 1 1 1 1 2 2 3 3 0 0 1 2 2 2 2 2 2 2
6 5 5 4 4 4 3 2 2 3 2 3 3 3 3 2 2 2 2 2 2 2 2 2 1 2 2 1 2 2 2 2 4 2 1 1 1 2 3 3 2 3 2
6 5 5 5 4 3 3 3 3 3 3 3 3 3 2 2 2 2 2 2 2 1 1 1 1 2 2 2 2 2 2 2 2 3 1 1 1 2 3 3 3 2 2
6 6 5 4 4 4 4 4 3 3 3 3 3 2 2 2 2 2 2 2 2 1 1 1 1 2 2 2 3 2 3 3 3 3 2 1 1 1 2 2 2 1 1
7 6 5 5 5 4 4 4 4 4 4 3 3 3 2 2 2 2 3 3 2 2 1 1 1 3 4 3 3 3 3 3 3 3 2 1 1 1 1 1 2 1 1
7 5 5 5 5 4 4 4 4 4 3 4 3 3 2 2 3 4 3 2 2 2 1 1 1 2 3 4 4 5 5 5 4 3 2 2 2 1 1 2 2 1 0
7 5 5 5 5 4 5 4 4 3 3 3 3 3 2 2 3 4 4 2 2 1 1 1 1 1 2 1 3 3 3 4 5 5 4 3 3 3 3 2 2 2 2
6 6 5 6 5 4 4 4 3 3 3 3 2 2 2 1 3 3 4 2 1 1 1 1 1 0 1 2 3 2 1 1 2 2 3 4 3 3 3 3 4 2 0
6 5 5 6 5 5 5 4 3 3 2 2 2 2 2 1 2 3 3 1 1 0 0 0 1 1 1 4 4 3 1 1 1 1 2 2 3 3 4 3 2 2 0
5 5 5 5 6 5 5 4 3 3 3 2 2 1 2 1 2 3 3 2 1 0 1 1 1 2 2 3 3 3 2 1 0 2 2 1 1 2 3 4 4 3 1
5 5 4 4 5 5 4 3 3 3 3 2 2 1 1 1 2 3 3 2 2 1 1 1 1 1 2 2 2 2 3 2 2 2 1 1 1 1 0 1 2 3 3
5 5 4 4 4 4 4 3 4 4 3 2 2 1 0 0 1 1 2 2 2 2 1 1 1 1 2 1 1 1 2 2 2 2 1 0 0 1 1 1 2 2 2
5 5 4 4 3 3 4 4 3 3 3 2 2 2 1 1 1 0 1 2 2 1 0 0 1 1 2 1 1 1 1 1 1 1 1 1 2 2 1 0 1 1 1
5 4 4 4 3 2 2 2 3 3 3 3 3 2 1 1 1 0 0 1 1 1 0 1 2 3 2 2 1 1 0 1 2 2 1 1 1 0 0 0 0 0 1
5 3 3 3 3 3 2 1 2 2 3 4 4 4 4 3 3 3 2 2 2 2 1 1 1 1 1 1 1 1 0 1 0 0 0 0 0 1 1 1 0 1 0
4 3 2 2 3 3 3 2 3 1 1 2 3 3 2 3 4 3 3 3 3 4 3 1 1 1 1 1 1 1 0 0 0 0 0 0 0 0 1 1 0 1 0
4 4 3 3 3 3 3 3 1 1 1 1 1 3 3 4 4 4 3 3 3 4 2 2 2 2 2 2 1 1 1 1 1 1 1 1 0 0 0 0 0 0 1
4 4 4 3 3 3 3 3 3 3 2 1 1 2 3 4 4 4 4 3 1 1 2 2 2 2 2 2 2 1 1 0 0 1 0 0 0 0 1 1 1 1 1
3 3 3 3 3 2 2 2 2 3 3 2 1 1 2 2 1 2 3 2 3 3 3 2 2 2 2 2 2 2 1 1 1 1 1 1 1 1 1 1 1 1 1
2 4 3 2 2 2 2 2 2 2 2 2 3 2 2 2 1 1 2 2 2 3 3 3 2 2 2 2 2 2 1 1 1 1 1 1 1 1 1 2 2 2 2
2 2 3 2 2 3 3 3 3 3 3 3 3 4 6 4 4 3 3 3 3 3 3 3 2 2 2 2 2 2 2 2 2 2 1 1 1 1 1 2 2 2 2
2 2 2 2 2 2 3 3 3 3 3 4 3 3 7 4 3 3 3 3 3 3 3 3 3 3 3 3 3 3 3 3 2 2 2 2 1 1 1 1 2 2 2
2 2 2 2 2 3 3 2 3 3 3 3 3 2 3 3 3 3 4 4 3 3 3 3 4 3 3 3 3 4 4 4 4 3 3 2 2 2 2 2 2 2 2
2 2 2 2 2 2 2 2 3 3 3 3 3 3 3 4 4 4 4 4 3 3 3 3 4 5 6 5 3 3 4 4 4 3 4 3 3 2 2 2 2 2 2
2 2 2 2 2 2 2 2 2 3 3 3 3 3 3 4 4 4 4 3 3 3 4 3 3 4 6 6 5 4 4 4 3 3 3 3 2 2 2 2 2 2 2
2 2 2 2 2 3 3 3 3 3 3 2 2 2 3 3 3 3 3 3 3 3 3 2 3 4 4 4 5 5 4 3 3 2 2 2 2 2 2 2 2 2 2
Wind_Direction
163 160 155 156 149 140 144 160 150 130 126 124 121 111 102 90 87 93 92 78 80 52 47 72 52 73 89 81 92 96 98 116 133 176 68 86 84 95 99 105 108 100 102
163 155 156 153 145 142 146 149 137 136 132 131 116 106 103 100 99 103 97 84 87 74 50 56 43 79 77 80 98 108 112 123 136 147 101 78 88 116 113 119 112 110 100
147 141 140 138 139 142 140 135 134 135 123 113 108 112 110 109 109 110 111 99 97 99 86 81 65 91 90 89 103 107 112 109 114 128 117 86 85 104 92 90 86 72 93
139 139 142 143 138 138 130 121 124 126 124 122 117 118 114 109 111 119 112 104 91 73 67 76 82 107 121 124 115 115 114 105 102 106 104 86 79 73 89 96 81 58 75
134 136 142 136 124 116 113 113 111 111 117 118 106 95 95 104 108 121 125 116 104 81 52 44 73 95 104 119 125 134 128 119 114 112 114 95 92 99 141 156 125 106 42
132 136 139 132 125 122 118 114 115 112 109 104 103 102 93 95 90 104 118 112 110 103 72 27 51 64 79 94 115 130 140 144 150 144 149 158 183 180 163 148 135 120 296
134 140 137 131 129 132 128 117 121 120 115 115 113 108 101 84 97 109 115 124 117 123 117 69 49 45 65 102 102 99 118 142 158 164 166 185 187 194 169 158 157 157 200
140 144 146 141 138 132 127 132 130 123 123 127 125 124 123 105 104 112 118 116 110 111 142 162 155 320 115 128 123 102 92 139 175 175 183 198 192 190 185 182 179 163 1
143 150 151 147 140 134 137 147 146 136 131 132 133 131 135 127 114 123 123 124 117 5 262 141 153 148 120 124 120 117 86 359 37 139 166 170 164 161 158 129 119 122 209
151 149 146 145 146 151 156 156 149 141 140 135 123 132 136 129 113 127 127 143 140 259 342 349 94 133 122 122 133 140 149 225 78 58 60 65 129 155 156 164 164 159 172
145 134 133 142 147 151 149 144 138 132 125 119 119 97 99 114 115 120 130 150 171 183 226 287 287 143 128 124 141 156 188 174 140 126 106 72 59 92 181 193 180 170 177
134 132 135 140 144 139 137 138 140 141 140 138 124 104 28 0 102 126 132 150 153 154 206 258 274 127 127 130 137 111 121 124 112 106 102 123 218 249 253 231 220 220 213
126 135 136 130 127 135 143 149 149 154 161 166 160 170 234 301 308 265 142 146 135 136 204 186 92 87 82 55 40 90 108 121 129 140 188 242 245 239 237 291 333 328 333
129 139 146 140 137 133 134 149 155 167 177 182 182 190 212 240 270 278 201 121 112 97 64 58 72 72 66 48 30 25 129 167 163 186 219 262 309 359 342 176 147 1 4
136 141 145 145 144 138 134 148 172 193 194 188 192 187 186 215 237 215 181 178 180 181 132 66 52 48 42 27 13 339 4 62 69 351 142 309 346 4 319 320 123 99 112
143 153 159 163 153 144 135 95 42 101 113 165 186 179 199 209 206 193 180 174 169 150 128 145 181 188 199 213 210 245 220 175 204 149 122 150 203 220 294 335 97 143 228
160 169 164 161 159 158 158 155 156 33 50 69 187 187 188 188 186 182 172 158 158 146 141 187 200 200 207 208 200 204 227 227 180 140 138 164 171 174 140 315 349 355 273
161 171 169 170 170 173 177 181 175 169 179 263 277 213 198 190 185 173 162 131 133 167 191 195 200 197 199 197 195 199 213 203 151 148 177 229 205 213 243 259 237 218 229
167 175 172 169 169 173 178 171 159 166 178 195 203 256 224 193 158 157 150 168 193 205 208 206 202 191 193 194 187 180 176 180 193 192 219 252 248 225 251 260 252 248 220
181 188 175 169 173 170 165 164 167 172 187 196 203 203 173 136 156 197 192 201 208 216 211 206 207 195 192 189 183 178 176 184 195 206 231 244 250 230 241 248 241 231 229
164 179 169 157 168 175 172 175 175 178 195 202 217 210 181 182 196 201 203 205 206 210 209 203 197 193 194 187 180 181 190 206 209 209 223 239 238 245 259 259 253 237 234
159 173 178 172 172 173 177 176 174 187 200 202 220 212 193 192 194 197 207 214 214 214 204 189 196 202 195 191 189 191 200 212 219 220 225 232 234 238 251 259 259 249 241
167 168 167 171 171 176 173 173 180 195 209 207 203 195 188 203 208 210 217 219 215 215 208 194 196 205 203 202 200 196 201 211 215 209 209 219 227 230 231 244 248 247 248
170 171 172 177 178 185 190 197 200 204 209 210 206 203 200 200 205 215 222 220 214 216 213 207 203 202 201 204 208 208 210 210 203 203 201 206 222 234 231 240 252 252 250
175 178 182 190 191 196 203 207 206 207 210 214 211 206 207 208 211 216 219 213 207 211 216 211 207 203 203 204 204 208 205 198 200 201 198 198 209 224 228 230 235 249 248
193 195 197 198 199 200 196 190 195 202 209 215 212 207 204 207 211 213 211 204 199 203 211 209 204 199 196 199 196 189 188 194 202 201 192 197 209 227 233 229 237 246 256